This is the latest recevied weather packets stored in our database for station/object ALAKES. If no packets are shown the sender has not sent any weather packets the latest 10 day(s).
| Time | Temp. | Humidity | Pressure | Rain* | Wind** | Luminosity | Snow |
|---|---|---|---|---|---|---|---|
| 1787724133 | 16.67° C | 37% | - | 0 mm | - | - | - |
| 1787723505 | 16.67° C | 36% | - | 0 mm | - | - | - |
| 1787722888 | 16.67° C | 36% | - | 0 mm | - | - | - |
| 1787722258 | 16.67° C | 38% | - | 0 mm | - | - | - |
| 1787721630 | 17.22° C | 37% | - | 0 mm | - | - | - |
| 1787721008 | 17.22° C | 35% | - | 0 mm | - | - | - |
| 1787720380 | 17.22° C | 35% | - | 0 mm | - | - | - |
| 1787719753 | 17.22° C | - | - | 0 mm | - | - | - |
| 1787719113 | 17.22° C | 34% | - | 0 mm | - | - | - |
| 1787718485 | 17.22° C | 34% | - | 0 mm | - | - | - |
| 1787717859 | 17.22° C | 34% | - | 0 mm | - | - | - |
| 1787717237 | 17.22° C | 33% | - | 0 mm | - | - | - |
| 1787716605 | 17.22° C | 33% | - | 0 mm | - | - | - |
| 1787715975 | 17.22° C | 32% | - | 0 mm | - | - | - |
| 1787715354 | 17.78° C | 32% | - | 0 mm | - | - | - |
| 1787714726 | 17.78° C | 32% | - | 0 mm | - | - | - |
| 1787714092 | 17.22° C | 32% | - | 0 mm | - | - | - |
| 1787713470 | 16.67° C | 33% | - | 0 mm | - | - | - |
| 1787712836 | 17.22° C | 39% | - | 0 mm | - | - | - |
| 1787712206 | 17.78° C | 37% | - | 0 mm | - | - | - |
| 1787711569 | 18.33° C | 33% | - | 0 mm | - | - | - |
| 1787710945 | 18.33° C | 29% | - | 0 mm | - | - | - |
| 1787710319 | 18.89° C | 28% | - | 0 mm | - | - | - |
| 1787709693 | 18.89° C | 27% | - | 0 mm | - | - | - |
| 1787709117 | 19.44° C | 26% | - | 0 mm | - | - | - |
* Rain latest 24 hours (hover to see other rain measurements)
** Current wind speed in m/s (hover to see current wind gust speed)